Accueil
METAR-TAF:

METAR-TAF

Aéroports :

Aéroport de Laval - Entrammes

Laval, France

latitude: 48-01-56N, longitude: 000-44-34W, altitude: 101 m

Observation

Le bulletin a été fait il y a 38 minutes, à 08:00 UTC
Vent 4 kt de nord/nord-ouest
Température 7°C
Humidité 87%
Pression 1042 hPa
Visibilité 10 km ou plus
Nuages épars à une hauteur de 3200 ft
Ciel couvert à une hauteur de 4300 ft

METAR: LFOV 050800Z AUTO 33004KT 9999 SCT032 OVC043 07/05 Q1042

Heure: 09:38 (08:38 UTC)


TAF: absent

Observations et prévisions météorologiques de plus de 4000 aéroports (messages METAR et TAF).

Les stations disponibles sont représentées par des disques jaunes et rouges sur la carte.

Passer la souris dessus pour voir le nom de la station.

Cliquer dessus pour voir les observations et prévisions météorologiques.

Pour changer de carte: cliquez sur les boutons verts avec une croix noire pour zoomer, sur le bouton vert avec un tiret pour effectuer un zoom arrière, ou sur les flèches vertes pour les cartes adjacentes.


METAR-TAF: